This is the latest recevied weather packets stored in our database for station/object EB2EMZ-3. If no packets are shown the sender has not sent any weather packets the latest 10 day(s).
| Time | Temp. | Humidity | Pressure | Rain* | Wind** | Luminosity | Snow |
|---|---|---|---|---|---|---|---|
| 1777452601 | 20° C | 75% | 1012.1 hPa | 0 mm | - | - | - |
| 1777452301 | 19.44° C | 76% | 1012.2 hPa | 0 mm | - | - | - |
| 1777452001 | 19.44° C | 76% | 1012.1 hPa | 0 mm | - | - | - |
| 1777451701 | 19.44° C | 76% | 1012 hPa | 0 mm | - | - | - |
| 1777451401 | 19.44° C | 76% | 1012.1 hPa | 0 mm | - | - | - |
| 1777451101 | 19.44° C | 76% | 1011.8 hPa | 0 mm | - | - | - |
| 1777450801 | 19.44° C | 76% | 1011.8 hPa | 0 mm | - | - | - |
| 1777450501 | 19.44° C | 75% | 1011.8 hPa | 0 mm | - | - | - |
| 1777450201 | 19.44° C | 75% | 1011.7 hPa | 0 mm | - | - | - |
| 1777449901 | 19.44° C | 75% | 1011.6 hPa | 0 mm | - | - | - |
| 1777449601 | 19.44° C | 76% | 1011.6 hPa | 0 mm | - | - | - |
| 1777449301 | 19.44° C | 76% | 1011.6 hPa | 0 mm | - | - | - |
| 1777449001 | 19.44° C | 76% | 1011.5 hPa | 0 mm | - | - | - |
| 1777448701 | 19.44° C | 76% | 1011.5 hPa | 0 mm | - | - | - |
| 1777448401 | 18.89° C | 76% | 1011.5 hPa | 0 mm | - | - | - |
| 1777448102 | 19.44° C | 76% | 1011.4 hPa | 0.51 mm | - | - | - |
| 1777447802 | 19.44° C | 77% | 1011.4 hPa | 0.51 mm | - | - | - |
| 1777447501 | 18.89° C | 78% | 1011.4 hPa | 0.51 mm | - | - | - |
| 1777447202 | 18.89° C | 78% | 1011.4 hPa | 0.51 mm | - | - | - |
| 1777446901 | 18.89° C | 79% | 1011 hPa | 0.51 mm | - | - | - |
| 1777446601 | 18.89° C | 80% | 1011.1 hPa | 0.51 mm | - | - | - |
| 1777446302 | 18.33° C | 81% | 1011 hPa | 0.51 mm | - | - | - |
| 1777446001 | 18.33° C | 83% | 1011 hPa | 0.51 mm | - | - | - |
| 1777445702 | 17.78° C | 83% | 1011.2 hPa | 0.51 mm | - | - | - |
| 1777445402 | 17.78° C | 83% | 1011 hPa | 0.51 mm | - | - | - |
* Rain latest hour (hover to see other rain measurements)
** Current wind speed in m/s (hover to see current wind gust speed)